sat.trackr.live / text

‹ back to catalog

STARLINK-34252

NORAD 64330 · 2025-124P

PAYLOAD ACTIVE UNKNOWN

§ Identity

Operator
Country
US
Launch date
2025-06-10
Launch site
AFETR
Launch vehicle
Mass (kg)
RCS (m²)

Purposes: comms

External: N2YO · Heavens-Above · Gunter

§ Orbital elements

Epoch: 2026-05-25T02:17:16.581120Z

Period
94.27 min
Inclination
42.9999°
Eccentricity
0.0000804
Mean motion
15.27594619 rev/d
Perigee alt
482.5 km
Apogee alt
483.6 km
Semi-major
6,861.1 km
B*
9.2098e-4
RAAN
50.3898°
Arg perigee
264.7522°
Mean anomaly
95.3238°
Rev number
5,346

§ Raw data

STARLINK-342521 64330U 25124P   26145.09533080  .00025179  00000+0  92098-3 0  99902 64330  42.9999  50.3898 0000804 264.7522  95.3238 15.27594619 53460

JSON: /api/v1/satellites/64330 · /tle

For live sub-satellite position, see the globe view (requires WebGL).

§ Visibility from observer

Set your observer location to see the next 7 days of passes ≥ 10°. The values pass through the URL so the page stays shareable.

No JS? Fill the form by hand. The geolocation button needs JavaScript.